When you browse on this site, cookies collect data to enhance your experience and personalize the content and advertising you see.
Visit our Privacy Policy to learn more. By continuing to use the site, you agree to this use of cookies and data.
  • In Hungary
  • List of Countries
  • For 7 days
  • Water Temperature
  • Weather Map
  • News
  • Weather Widgets
  • user-avatar
    Login

    Hourly Weather Jatani

    Today, 13 November, Wednesday

    Time Temperature Precipitation Wind Pressure Humidity
    00:00 +22°C° 0 mm 0 mps 758 mmHg 84%
    01:00 +24°C° 0 mm 1 mps 757 mmHg 84%
    02:00 +24°C° 0 mm 1 mps 757 mmHg 84%
    03:00 +23°C° 0 mm 1 mps 757 mmHg 85%
    04:00 +23°C° 0 mm 1 mps 757 mmHg 86%
    05:00 +23°C° 0 mm 1 mps 757 mmHg 87%
    06:00 +23°C° 0 mm 1 mps 758 mmHg 88%
    07:00 +24°C° 0 mm 1 mps 758 mmHg 82%
    08:00 +26°C° 0 mm 1 mps 759 mmHg 76%
    09:00 +27°C° 0 mm 2 mps 760 mmHg 70%
    10:00 +28°C° 0 mm 2 mps 759 mmHg 63%
    11:00 +30°C° 0 mm 2 mps 759 mmHg 55%
    12:00 +31°C° 0 mm 2 mps 759 mmHg 47%
    13:00 +31°C° 0 mm 2 mps 758 mmHg 45%
    14:00 +31°C° 0 mm 2 mps 757 mmHg 43%
    15:00 +33°C° 0 mm 3 mps 757 mmHg 42%
    16:00 +30°C° 0 mm 2 mps 757 mmHg 47%
    17:00 +28°C° 0 mm 2 mps 757 mmHg 52%
    18:00 +26°C° 0 mm 1 mps 757 mmHg 57%
    19:00 +26°C° 0 mm 1 mps 758 mmHg 61%
    20:00 +25°C° 0 mm 1 mps 758 mmHg 66%
    21:00 +24°C° 0 mm 1 mps 759 mmHg 71%
    22:00 +23°C° 0 mm 1 mps 759 mmHg 72%
    23:00 +23°C° 0 mm 1 mps 759 mmHg 74%

    Tomorrow, 14 November, Thursday

    Time Temperature Precipitation Wind Pressure Humidity
    00:00 +23°C° 0 mm 1 mps 759 mmHg 75%
    01:00 +22°C° 0 mm 1 mps 758 mmHg 76%
    02:00 +22°C° 0 mm 1 mps 758 mmHg 77%
    03:00 +22°C° 0 mm 1 mps 758 mmHg 78%
    04:00 +21°C° 0 mm 1 mps 758 mmHg 79%
    05:00 +21°C° 0 mm 1 mps 758 mmHg 79%
    06:00 +21°C° 0 mm 1 mps 758 mmHg 80%
    07:00 +23°C° 0 mm 2 mps 759 mmHg 75%
    08:00 +24°C° 0 mm 2 mps 759 mmHg 69%
    09:00 +26°C° 0 mm 2 mps 759 mmHg 64%
    10:00 +27°C° 0 mm 3 mps 759 mmHg 58%
    11:00 +29°C° 0 mm 3 mps 759 mmHg 51%
    12:00 +30°C° 0 mm 3 mps 758 mmHg 45%
    13:00 +30°C° 0 mm 3 mps 758 mmHg 43%
    14:00 +31°C° 0 mm 3 mps 757 mmHg 42%
    15:00 +31°C° 0 mm 3 mps 757 mmHg 41%
    16:00 +29°C° 0 mm 2 mps 757 mmHg 46%
    17:00 +28°C° 0 mm 2 mps 757 mmHg 51%
    18:00 +26°C° 0 mm 1 mps 757 mmHg 56%
    19:00 +25°C° 0 mm 1 mps 757 mmHg 59%
    20:00 +24°C° 0 mm 1 mps 758 mmHg 63%
    21:00 +23°C° 0 mm 1 mps 758 mmHg 67%
    22:00 +23°C° 0 mm 1 mps 758 mmHg 69%
    23:00 +23°C° 0 mm 1 mps 758 mmHg 71%

    Day after tomorrow, 15 November, Friday

    Time Temperature Precipitation Wind Pressure Humidity
    00:00 +20°C° 0 mm 0 mps 758 mmHg 74%
    01:00 +22°C° 0 mm 1 mps 757 mmHg 74%
    02:00 +22°C° 0 mm 1 mps 757 mmHg 74%
    03:00 +22°C° 0 mm 1 mps 756 mmHg 74%
    04:00 +21°C° 0 mm 1 mps 757 mmHg 74%
    05:00 +21°C° 0 mm 1 mps 757 mmHg 74%
    06:00 +21°C° 0 mm 1 mps 757 mmHg 73%
    07:00 +23°C° 0 mm 2 mps 757 mmHg 68%
    08:00 +24°C° 0 mm 2 mps 758 mmHg 63%
    09:00 +26°C° 0 mm 2 mps 758 mmHg 58%
    10:00 +28°C° 0 mm 2 mps 758 mmHg 53%
    11:00 +29°C° 0 mm 2 mps 758 mmHg 48%
    12:00 +31°C° 0 mm 2 mps 757 mmHg 42%
    13:00 +31°C° 0 mm 2 mps 757 mmHg 42%
    14:00 +31°C° 0 mm 2 mps 756 mmHg 41%
    15:00 +32°C° 0 mm 2 mps 755 mmHg 41%
    16:00 +30°C° 0 mm 2 mps 756 mmHg 45%
    17:00 +29°C° 0 mm 2 mps 756 mmHg 50%
    18:00 +27°C° 0 mm 1 mps 756 mmHg 56%
    19:00 +26°C° 0 mm 1 mps 756 mmHg 60%
    20:00 +25°C° 0 mm 1 mps 757 mmHg 65%
    21:00 +24°C° 0 mm 1 mps 757 mmHg 70%
    22:00 +24°C° 0 mm 1 mps 757 mmHg 70%
    23:00 +24°C° 0 mm 1 mps 757 mmHg 70%

    16 November, Saturday

    Time Temperature Precipitation Wind Pressure Humidity
    00:00 +22°C° 0 mm 0 mps 757 mmHg 71%
    01:00 +23°C° 0 mm 1 mps 756 mmHg 71%
    02:00 +23°C° 0 mm 1 mps 756 mmHg 71%
    03:00 +23°C° 0 mm 1 mps 755 mmHg 71%
    04:00 +23°C° 0 mm 1 mps 756 mmHg 71%
    05:00 +23°C° 0 mm 1 mps 756 mmHg 71%
    06:00 +23°C° 0 mm 2 mps 756 mmHg 71%
    07:00 +24°C° 0 mm 2 mps 757 mmHg 67%
    08:00 +26°C° 0 mm 2 mps 757 mmHg 62%
    09:00 +28°C° 0 mm 2 mps 758 mmHg 57%
    10:00 +29°C° 0 mm 2 mps 758 mmHg 53%
    11:00 +30°C° 0 mm 2 mps 757 mmHg 49%
    12:00 +32°C° 0 mm 2 mps 757 mmHg 44%
    13:00 +32°C° 0 mm 2 mps 756 mmHg 44%
    14:00 +34°C° 0 mm 2 mps 756 mmHg 44%
    15:00 +34°C° 0 mm 2 mps 755 mmHg 43%
    16:00 +31°C° 0 mm 2 mps 755 mmHg 49%
    17:00 +30°C° 0 mm 1 mps 755 mmHg 54%
    18:00 +28°C° 0 mm 1 mps 755 mmHg 60%
    19:00 +27°C° 0 mm 1 mps 756 mmHg 65%
    20:00 +26°C° 0 mm 1 mps 757 mmHg 70%
    21:00 +26°C° 0 mm 2 mps 757 mmHg 75%
    22:00 +25°C° 0 mm 1 mps 757 mmHg 76%
    23:00 +23°C° 0 mm 0 mps 757 mmHg 76%

    17 November, Sunday

    Time Temperature Precipitation Wind Pressure Humidity
    00:00 +23°C° 0 mm 0 mps 756 mmHg 77%
    01:00 +23°C° 0 mm 0 mps 756 mmHg 77%
    02:00 +24°C° 0 mm 1 mps 756 mmHg 77%
    03:00 +24°C° 0 mm 1 mps 756 mmHg 77%
    04:00 +24°C° 0 mm 1 mps 756 mmHg 77%
    05:00 +24°C° 0 mm 1 mps 756 mmHg 77%
    06:00 +24°C° 0 mm 1 mps 756 mmHg 77%
    07:00 +25°C° 0 mm 1 mps 757 mmHg 73%
    08:00 +27°C° 0 mm 1 mps 758 mmHg 68%
    09:00 +28°C° 0 mm 2 mps 758 mmHg 63%
    10:00 +30°C° 0 mm 2 mps 758 mmHg 58%
    11:00 +31°C° 0 mm 2 mps 757 mmHg 53%
    12:00 +32°C° 0 mm 2 mps 757 mmHg 48%
    13:00 +32°C° 0 mm 2 mps 756 mmHg 47%
    14:00 +33°C° 0 mm 1 mps 756 mmHg 46%
    15:00 +33°C° 0 mm 1 mps 755 mmHg 45%
    16:00 +31°C° 0 mm 1 mps 755 mmHg 51%
    17:00 +30°C° 0 mm 1 mps 756 mmHg 56%
    18:00 +28°C° 0 mm 1 mps 756 mmHg 62%
    19:00 +27°C° 0 mm 1 mps 756 mmHg 66%
    20:00 +26°C° 0 mm 1 mps 757 mmHg 70%
    21:00 +26°C° 0 mm 1 mps 757 mmHg 75%
    22:00 +25°C° 0 mm 1 mps 757 mmHg 77%
    23:00 +23°C° 0 mm 0 mps 757 mmHg 79%

    18 November, Monday

    Time Temperature Precipitation Wind Pressure Humidity
    00:00 +23°C° 0 mm 0 mps 757 mmHg 81%
    01:00 +22°C° 0 mm 0 mps 756 mmHg 82%
    02:00 +22°C° 0 mm 0 mps 756 mmHg 83%
    03:00 +24°C° 0 mm 1 mps 756 mmHg 84%
    04:00 +23°C° 0 mm 1 mps 756 mmHg 85%
    05:00 +23°C° 0 mm 1 mps 756 mmHg 86%
    06:00 +23°C° 0 mm 1 mps 757 mmHg 86%
    07:00 +25°C° 0 mm 1 mps 757 mmHg 80%
    08:00 +26°C° 0 mm 1 mps 758 mmHg 73%
    09:00 +28°C° 0 mm 1 mps 758 mmHg 67%
    10:00 +29°C° 0 mm 1 mps 758 mmHg 61%
    11:00 +30°C° 0 mm 2 mps 758 mmHg 55%
    12:00 +32°C° 0 mm 2 mps 757 mmHg 49%
    13:00 +32°C° 0 mm 2 mps 757 mmHg 47%
    14:00 +32°C° 0 mm 2 mps 756 mmHg 45%
    15:00 +34°C° 0 mm 2 mps 756 mmHg 43%
    16:00 +31°C° 0 mm 2 mps 756 mmHg 48%
    17:00 +29°C° 0 mm 1 mps 756 mmHg 54%
    18:00 +28°C° 0 mm 1 mps 756 mmHg 60%
    19:00 +27°C° 0 mm 1 mps 756 mmHg 66%
    20:00 +26°C° 0 mm 1 mps 757 mmHg 72%
    21:00 +25°C° 0 mm 1 mps 757 mmHg 79%
    22:00 +25°C° 0 mm 1 mps 757 mmHg 80%
    23:00 +24°C° 0 mm 1 mps 757 mmHg 81%
    Show more